Regional Weather Roundup
Issued by NWS

Home | Current Version | Previous Version | Text Only | Print | Product List | Glossary Off
Versions: 1 2 3 4 5 6 7 8 9 10 11 12 13 14 15 16 17 18 19 20 21 22 23 24 25 26 27 28 29 30 31 32 33 34 35 36 37 38 39 40 41 42 43 44 45 46 47 48 49 50

000
ASUS43 KLMK 242002
RWRKY
KENTUCKY REGIONAL WEATHER ROUNDUP
NATIONAL WEATHER SERVICE LOUISVILLE KY
300 PM EST WED DEC 24 2014

NOTE "FAIR" INDICATES FEW OR NO CLOUDS BELOW 12,000 FEET
WITH NO SIGNIFICANT WEATHER AND/OR OBSTRUCTIONS TO VISIBILITY.

KYZ001>023-026-027-061>063-070>075-242100-
WESTERN AND SOUTH CENTRAL KENTUCKY

CITY           SKY/WX    TMP DP  RH WIND       PRES   REMARKS
PADUCAH        CLOUDY    42  38  85 W14       29.68S
HENDERSON      CLOUDY    43  37  81 W13       29.63S
OWENSBORO      CLOUDY    44  40  86 W13       29.63R
HOPKINSVILLE   PTSUNNY   47  40  78 W10       29.66S
BOWLING GREEN  CLOUDY    45  40  82 W13G22    29.65R
GLASGOW        NOT AVBL
$$

KYZ024-025-028>034-038-045-046-053-242100-
NORTH CENTRAL KENTUCKY

CITY           SKY/WX    TMP DP  RH WIND       PRES   REMARKS
LOUISVILLE/SDF LGT RAIN  45  41  86 W17       29.53R
LOUISVILLE/LOU LGT RAIN  45  41  86 W14       29.52R
FORT KNOX      CLOUDY    42  40  91 W15G25    29.56R
$$

KYZ035>037-039>044-047>052-055>060-089>105-242100-
NORTHEAST KENTUCKY

CITY           SKY/WX    TMP DP  RH WIND       PRES   REMARKS
LEXINGTON      LGT RAIN  48  45  89 W18G35    29.47R
COVINGTON      RAIN      46  41  82 W31G39    29.43R VSB 1
FRANKFORT      LGT RAIN  45  42  89 W16G28    29.47R
$$

KYZ054-064>069-076>088-106>120-242100-
SOUTHEAST KENTUCKY

CITY           SKY/WX    TMP DP  RH WIND       PRES   REMARKS
JACKSON        CLOUDY    65  52  62 S10G22    29.44F
LONDON         CLOUDY    63  52  67 S15       29.46S
SOMERSET       NOT AVBL
MIDDLESBORO    CLOUDY    60  55  85 S3        29.51F
MONTICELLO     CLOUDY    47  43  86 W18G28    29.61R
$$



USA.gov is the U.S. government's official web portal to all federal, state and local government web resources and services.